Change the Weather History Date:

Tuesday, April 2, 2013

  Actual Average Record
Temperature  
Mean Temperature 32 °F 46 °F  
Max Temperature 47 °F 57 °F 86 °F (1940)
Min Temperature 16 °F 35 °F 13 °F (1899)
Degree Days  
Heating Degree Days 33 19  
Month to date heating degree days 65 39  
Since 1 July heating degree days 5603 5735  
Cooling Degree Days 0 0  
Month to date cooling degree days 0 0  
Year to date cooling degree days 0 1  
Growing Degree Days 0 (Base 50)    
Moisture  
Dew Point 18 °F    
Average Humidity 56    
Maximum Humidity 84    
Minimum Humidity 28    
Precipitation  
Precipitation 0.00 in 0.09 in 1.05 in (1983)
Month to date precipitation 0.00 0.18  
Year to date precipitation 5.35 4.60  
Sea Level Pressure  
Sea Level Pressure 30.34 in    
Wind  
Wind Speed 8 mph (NNW)    
Max Wind Speed 20 mph    
Max Gust Speed 25 mph    
Visibility 10 miles    
Events      
T = Trace of Precipitation, MM = Missing Value Source: NWS Daily Summary

Daily Weather History Graph

Daily Weather History Graph

Search for Another Location

Airport or City:

Trip Planner

Search our weather history database for the weather conditions in past years. The results will help you decide how hot, cold, wet, or windy it might be!

Date:

Astronomy

Apr. 02, 2013 Rise Set
Actual Time 6:50 AM CDT 7:36 PM CDT
Civil Twilight 6:23 AM CDT 8:04 PM CDT
Nautical Twilight 5:50 AM CDT 8:37 PM CDT
Astronomical Twilight 5:16 AM CDT 9:11 PM CDT
Moon 1:43 AM CDT (4/2) 11:40 AM CDT (4/2)
Length of Visible Light 13h 40m
Length of Day
12h 45m
Waning Gibbous, 55% of the Moon is Illuminated
Apr 2
Waning Gibbous
Apr 2
Last Quarter
Apr 10
New
Apr 18
First Quarter
Apr 25
Full

Hourly Weather History & Observations

Time (CDT) Temp. Windchill Dew Point Humidity Pressure Visibility Wind Dir Wind Speed Gust Speed Precip Events Conditions
12:53 AM 23.0 °F 13.9 °F 16.0 °F 74% 30.32 in 10.0 mi NW 8.1 mph - N/A   Clear
1:53 AM 21.9 °F 12.5 °F 15.1 °F 75% 30.32 in 10.0 mi NW 8.1 mph - N/A   Clear
2:53 AM 21.0 °F 13.4 °F 15.1 °F 78% 30.32 in 10.0 mi WNW 5.8 mph - N/A   Clear
3:53 AM 18.0 °F 11.1 °F 14.0 °F 84% 30.32 in 10.0 mi WNW 4.6 mph - N/A   Clear
4:53 AM 21.9 °F 17.2 °F 16.0 °F 78% 30.31 in 10.0 mi WNW 3.5 mph - N/A   Clear
5:53 AM 19.9 °F 12.1 °F 15.1 °F 81% 30.32 in 10.0 mi NW 5.8 mph - N/A   Clear
6:53 AM 19.0 °F 13.9 °F 15.1 °F 85% 30.34 in 10.0 mi WNW 3.5 mph - N/A   Clear
7:53 AM 24.1 °F 19.7 °F 19.9 °F 84% 30.36 in 10.0 mi WNW 3.5 mph - N/A   Clear
8:53 AM 28.9 °F 25.2 °F 21.9 °F 75% 30.38 in 10.0 mi West 3.5 mph - N/A   Clear
9:53 AM 35.1 °F 29.3 °F 19.9 °F 54% 30.37 in 10.0 mi NNW 6.9 mph - N/A   Clear
10:53 AM 37.9 °F 30.9 °F 18.0 °F 45% 30.38 in 10.0 mi NNW 10.4 mph - N/A   Clear
11:53 AM 41.0 °F 36.4 °F 19.0 °F 41% 30.36 in 10.0 mi North 6.9 mph - N/A   Partly Cloudy
12:53 PM 43.0 °F 38.2 °F 18.0 °F 37% 30.34 in 10.0 mi NNW 8.1 mph - N/A   Clear
1:53 PM 44.1 °F 37.7 °F 17.1 °F 34% 30.32 in 10.0 mi WNW 12.7 mph 18.4 mph N/A   Clear
2:53 PM 46.0 °F 41.9 °F 16.0 °F 30% 30.31 in 10.0 mi NNW 8.1 mph 19.6 mph N/A   Clear
3:53 PM 46.9 °F - 17.1 °F 30% 30.30 in 10.0 mi NW 18.4 mph 21.9 mph N/A   Clear
4:53 PM 46.9 °F - 18.0 °F 32% 30.30 in 10.0 mi NNW 13.8 mph 23.0 mph N/A   Clear
5:53 PM 45.0 °F 37.9 °F 17.1 °F 33% 30.30 in 10.0 mi North 16.1 mph - N/A   Clear
6:53 PM 42.1 °F 35.7 °F 19.9 °F 41% 30.32 in 10.0 mi North 11.5 mph - N/A   Clear
7:53 PM 37.0 °F 29.8 °F 21.0 °F 52% 30.34 in 10.0 mi NNE 10.4 mph - N/A   Clear
8:53 PM 33.1 °F 26.9 °F 19.9 °F 59% 30.35 in 10.0 mi NNE 6.9 mph - N/A   Clear
9:53 PM 32.0 °F 25.6 °F 19.9 °F 61% 30.36 in 10.0 mi NNE 6.9 mph - N/A   Clear
10:53 PM 30.9 °F 26.2 °F 19.0 °F 61% 30.37 in 10.0 mi NNE 4.6 mph - N/A   Clear
11:53 PM 28.9 °F 23.9 °F 19.0 °F 67% 30.37 in 10.0 mi NE 4.6 mph - N/A   Clear